| time (UTC) | temp F | wind direction | speed MPH | gust MPH | rain 1hr in | rain 24hr in | rain mn in | humidity % | barometer mb |
| 20260902004623 | 62 | 195 | 0.0 | 12.0 | 0.00 | 0.00 | 0.00 | 50 | 1014.0 |
| 20260902003027 | 62 | 115 | 0.0 | 3.0 | 0.00 | 0.00 | 0.00 | 48 | 1014.1 |
| 20260902001523 | 63 | 151 | 0.0 | 3.0 | 0.00 | 0.00 | 0.00 | 48 | 1014.2 |
| 20260902000024 | 63 | 144 | 0.0 | 6.0 | 0.00 | 0.00 | 0.00 | 49 | 1014.1 |
| 20260901234521 | 62 | 151 | 0.0 | 5.0 | 0.00 | 0.00 | 0.00 | 50 | 1014.1 |
| 20260901233020 | 62 | 126 | 0.0 | 9.0 | 0.00 | 0.00 | 0.00 | 51 | 1014.1 |
| 20260901231525 | 60 | 138 | 0.0 | 3.0 | 0.00 | 0.00 | 0.00 | 52 | 1014.1 |
| 20260901230019 | 60 | 106 | 0.0 | 2.0 | 0.00 | 0.00 | 0.00 | 54 | 1013.9 |
| 20260901224529 | 61 | 154 | 0.0 | 3.0 | 0.00 | 0.00 | 0.00 | 51 | 1014.1 |
| 20260901223017 | 62 | 202 | 0.0 | 1.0 | 0.00 | 0.00 | 0.00 | 51 | 1013.8 |
| 20260901221516 | 62 | 131 | 0.0 | 8.0 | 0.00 | 0.00 | 0.00 | 53 | 1013.8 |
| 20260901220015 | 63 | 140 | 0.0 | 11.0 | 0.00 | 0.00 | 0.00 | 52 | 1013.7 |
| 20260901214514 | 64 | 145 | 0.0 | 3.0 | 0.00 | 0.00 | 0.00 | 49 | 1013.6 |
| 20260901213021 | 65 | 147 | 0.0 | 10.0 | 0.00 | 0.00 | 0.00 | 48 | 1013.5 |
| 20260901211513 | 66 | 152 | 0.0 | 4.0 | 0.00 | 0.00 | 0.00 | 46 | 1013.5 |
| 20260901210013 | 66 | 164 | 0.0 | 6.0 | 0.00 | 0.00 | 0.00 | 44 | 1013.5 |
| 20260901204511 | 67 | 160 | 0.0 | 8.0 | 0.00 | 0.00 | 0.00 | 41 | 1013.2 |
| 20260901203010 | 67 | 132 | 0.0 | 15.0 | 0.00 | 0.00 | 0.00 | 41 | 1013.2 |
| 20260901201510 | 68 | 139 | 0.0 | 15.0 | 0.00 | 0.00 | 0.00 | 38 | 1013.1 |
| 20260901200011 | 68 | 168 | 0.0 | 20.0 | 0.00 | 0.00 | 0.00 | 39 | 1013.2 |
| 20260901194505 | 67 | 139 | 0.0 | 15.0 | 0.00 | 0.00 | 0.00 | 39 | 1013.3 |
| 20260901193101 | 66 | 176 | 1.0 | 13.0 | 0.00 | 0.00 | 0.00 | 36 | 1013.4 |
| 20260901193001 | 66 | 207 | 0.0 | 13.0 | 0.00 | 0.00 | 0.00 | 36 | 1013.5 |
| 20260901191612 | 65 | 298 | 2.0 | 23.0 | 0.00 | 0.00 | 0.00 | 37 | 1013.4 |
| 20260901190054 | 64 | 230 | 0.0 | 12.0 | 0.00 | 0.00 | 0.00 | 38 | 1013.5 |
| 20260901184610 | 62 | 189 | 0.0 | 9.0 | 0.00 | 0.00 | 0.00 | 38 | 1013.4 |
| 20260901183053 | 62 | 128 | 0.0 | 17.0 | 0.00 | 0.00 | 0.00 | 36 | 1013.6 |
| 20260901181557 | 62 | 242 | 0.0 | 17.0 | 0.00 | 0.00 | 0.00 | 37 | 1013.3 |
| 20260901180047 | 63 | 160 | 0.0 | 16.0 | 0.00 | 0.00 | 0.00 | 38 | 1013.2 |
| 20260901174553 | 62 | 147 | 0.0 | 9.0 | 0.00 | 0.00 | 0.00 | 41 | 1013.0 |
| 20260901173042 | 61 | 144 | 0.0 | 10.0 | 0.00 | 0.00 | 0.00 | 41 | 1013.0 |
| 20260901171543 | 61 | 158 | 0.0 | 8.0 | 0.00 | 0.00 | 0.00 | 46 | 1012.8 |
| 20260901170040 | 60 | 202 | 0.0 | 8.0 | 0.00 | 0.00 | 0.00 | 50 | 1012.8 |
| 20260901164542 | 59 | 212 | 1.0 | 14.0 | 0.00 | 0.00 | 0.00 | 53 | 1013.0 |
| 20260901163038 | 58 | 149 | 0.0 | 12.0 | 0.00 | 0.00 | 0.00 | 56 | 1012.9 |
| 20260901161546 | 57 | 212 | 0.0 | 3.0 | 0.00 | 0.00 | 0.00 | 58 | 1012.7 |
| 20260901160058 | 56 | 260 | 0.0 | 10.0 | 0.00 | 0.00 | 0.00 | 62 | 1012.6 |
| 20260901154534 | 54 | 145 | 0.0 | 3.0 | 0.00 | 0.00 | 0.00 | 65 | 1012.5 |
| 20260901153032 | 53 | 160 | 0.0 | 6.0 | 0.00 | 0.00 | 0.00 | 67 | 1012.5 |
| 20260901151529 | 53 | 160 | 0.0 | 8.0 | 0.00 | 0.00 | 0.00 | 68 | 1012.5 |
| 20260901150028 | 52 | 137 | 0.0 | 1.0 | 0.00 | 0.00 | 0.00 | 69 | 1012.4 |
| 20260901144526 | 52 | 135 | 0.0 | 3.0 | 0.00 | 0.00 | 0.00 | 69 | 1012.2 |
| 20260901143023 | 51 | 122 | 0.0 | 4.0 | 0.00 | 0.00 | 0.00 | 69 | 1012.0 |
| 20260901141521 | 52 | 212 | 0.0 | 2.0 | 0.00 | 0.00 | 0.00 | 69 | 1011.9 |
| 20260901140120 | 52 | 224 | 0.0 | 0.0 | 0.00 | 0.00 | 0.00 | 68 | 1011.9 |
| 20260901134525 | 52 | 152 | 0.0 | 2.0 | 0.00 | 0.00 | 0.00 | 66 | 1011.8 |
| 20260901133018 | 52 | 174 | 0.0 | 0.0 | 0.00 | 0.00 | 0.00 | 66 | 1011.8 |
| 20260901131518 | 52 | 180 | 0.0 | 1.0 | 0.00 | 0.00 | 0.00 | 66 | 1011.7 |
| 20260901130023 | 52 | 143 | 0.0 | 2.0 | 0.00 | 0.00 | 0.00 | 67 | 1011.7 |
| 20260901124522 | 52 | 217 | 0.0 | 7.0 | 0.00 | 0.00 | 0.00 | 67 | 1011.9 |
| 20260901123032 | 53 | 145 | 0.0 | 3.0 | 0.00 | 0.00 | 0.00 | 66 | 1012.1 |
| 20260901121512 | 53 | 153 | 0.0 | 9.0 | 0.00 | 0.00 | 0.00 | 65 | 1012.1 |
| 20260901120010 | 53 | 131 | 0.0 | 10.0 | 0.00 | 0.00 | 0.00 | 65 | 1012.2 |
| 20260901114507 | 53 | 180 | 0.0 | 2.0 | 0.00 | 0.00 | 0.00 | 64 | 1011.9 |
| 20260901113005 | 54 | 164 | 0.0 | 11.0 | 0.00 | 0.00 | 0.00 | 64 | 1011.7 |
| 20260901111505 | 54 | 139 | 0.0 | 6.0 | 0.00 | 0.00 | 0.00 | 64 | 1011.6 |
| 20260901110003 | 54 | 131 | 0.0 | 5.0 | 0.00 | 0.00 | 0.00 | 63 | 1011.7 |
| 20260901104601 | 55 | 160 | 0.0 | 8.0 | 0.00 | 0.00 | 0.00 | 62 | 1011.6 |
| 20260901103057 | 55 | 161 | 0.0 | 5.0 | 0.00 | 0.00 | 0.00 | 61 | 1011.7 |
| 20260901101554 | 56 | 168 | 0.0 | 1.0 | 0.00 | 0.00 | 0.00 | 59 | 1011.7 |
| 20260901100055 | 56 | 123 | 0.0 | 6.0 | 0.00 | 0.00 | 0.00 | 58 | 1011.7 |
| 20260901094550 | 57 | 160 | 0.0 | 1.0 | 0.00 | 0.00 | 0.00 | 56 | 1011.8 |
| 20260901093047 | 57 | 207 | 0.0 | 1.0 | 0.00 | 0.00 | 0.00 | 54 | 1011.8 |
| 20260901091545 | 58 | 172 | 0.0 | 1.0 | 0.00 | 0.00 | 0.00 | 52 | 1011.8 |
| 20260901090042 | 58 | 216 | 0.0 | 2.0 | 0.00 | 0.00 | 0.00 | 50 | 1011.6 |
| 20260901084539 | 59 | 166 | 0.0 | 2.0 | 0.00 | 0.00 | 0.00 | 50 | 1011.5 |
| 20260901083036 | 59 | 158 | 0.0 | 2.0 | 0.00 | 0.00 | 0.00 | 48 | 1011.7 |
| 20260901081536 | 60 | 207 | 0.0 | 4.0 | 0.00 | 0.00 | 0.00 | 47 | 1011.8 |
| 20260901080033 | 60 | 193 | 0.0 | 3.0 | 0.00 | 0.00 | 0.00 | 44 | 1011.8 |
| 20260901074529 | 60 | 229 | 0.0 | 4.0 | 0.00 | 0.00 | 0.00 | 43 | 1011.7 |
| 20260901073030 | 61 | 131 | 0.0 | 6.0 | 0.00 | 0.00 | 0.00 | 42 | 1011.8 |
| 20260901071527 | 61 | 174 | 0.0 | 8.0 | 0.00 | 0.00 | 0.00 | 41 | 1011.8 |
| 20260901070024 | 61 | 181 | 0.0 | 6.0 | 0.00 | 0.00 | 0.00 | 40 | 1011.8 |
| 20260901064525 | 62 | 188 | 0.0 | 10.0 | 0.00 | 0.00 | 0.00 | 39 | 1011.9 |
| 20260901063031 | 62 | 166 | 0.0 | 12.0 | 0.00 | 0.00 | 0.00 | 38 | 1011.8 |
| 20260901061522 | 63 | 174 | 0.0 | 18.0 | 0.00 | 0.00 | 0.00 | 34 | 1011.6 |
| 20260901060022 | 63 | 212 | 0.0 | 13.0 | 0.00 | 0.00 | 0.00 | 33 | 1011.6 |
| 20260901054522 | 63 | 148 | 0.0 | 9.0 | 0.00 | 0.00 | 0.00 | 31 | 1011.8 |
| 20260901053024 | 64 | 133 | 0.0 | 17.0 | 0.00 | 0.00 | 0.00 | 29 | 1011.4 |
| 20260901051532 | 64 | 245 | 0.0 | 15.0 | 0.00 | 0.00 | 0.00 | 28 | 1011.3 |
| 20260901050020 | 64 | 114 | 1.0 | 14.0 | 0.00 | 0.00 | 0.00 | 28 | 1011.4 |
| 20260901044519 | 65 | 160 | 0.0 | 3.0 | 0.00 | 0.00 | 0.00 | 29 | 1011.6 |
| 20260901043029 | 65 | 147 | 0.0 | 9.0 | 0.00 | 0.00 | 0.00 | 30 | 1011.6 |
| 20260901041518 | 65 | 146 | 0.0 | 3.0 | 0.00 | 0.00 | 0.00 | 30 | 1011.5 |
| 20260901040023 | 66 | 129 | 0.0 | 4.0 | 0.00 | 0.00 | 0.00 | 29 | 1011.3 |
| 20260901034518 | 66 | 93 | 0.0 | 2.0 | 0.00 | 0.00 | 0.00 | 29 | 1011.2 |
| 20260901033018 | 67 | 161 | 0.0 | 6.0 | 0.00 | 0.00 | 0.00 | 28 | 1011.0 |
| 20260901031517 | 68 | 134 | 0.0 | 2.0 | 0.00 | 0.00 | 0.00 | 27 | 1010.7 |
| 20260901030015 | 68 | 124 | 0.0 | 3.0 | 0.00 | 0.00 | 0.00 | 26 | 1010.5 |
| 20260901024514 | 69 | 135 | 0.0 | 15.0 | 0.00 | 0.00 | 0.00 | 27 | 1010.4 |
| 20260901023013 | 70 | 145 | 0.0 | 11.0 | 0.00 | 0.00 | 0.00 | 26 | 1010.4 |
| 20260901021632 | 71 | 124 | 0.0 | 13.0 | 0.00 | 0.00 | 0.00 | 25 | 1010.4 |
| 20260901020012 | 73 | 124 | 0.0 | 2.0 | 0.00 | 0.00 | 0.00 | 25 | 1010.4 |
| 20260901014513 | 75 | 166 | 0.0 | 2.0 | 0.00 | 0.00 | 0.00 | 24 | 1010.5 |
| 20260901013014 | 76 | 178 | 0.0 | 2.0 | 0.00 | 0.00 | 0.00 | 23 | 1010.6 |
| 20260901011512 | 77 | 149 | 0.0 | 3.0 | 0.00 | 0.00 | 0.00 | 21 | 1010.6 |
| 20260901010009 | 78 | 179 | 0.0 | 8.0 | 0.00 | 0.00 | 0.00 | 22 | 1010.7 |